STARLINK-30914, 58377

Orbit data source: Space-Track

STARLINK-30914, 58377 is a payload satellite owned by SpaceX/Seattle (US) in LEO that was launched on Mon, 20 Nov 2023 UTC via an FALCON 9 launch vehicle from the Air Force Western Test Range (AFWTR). Payload-class satellites include a variety of spacecraft equipped with specific instruments for various scientific and technological missions. These include communications satellites like Starlink; space stations such as the ISS; scientific satellites like the Hubble; Earth observation satellites from companies like Planet Labs, Umbra, and HawkEye 360; GPS; miniature CubeSats for education and research; and military/defense satellites.

Loading next visibility...
Identifier
58377, 2023-178D
Orbit
LEO
Country
Flag of USUS
Related business
Manufacturer
SpaceX/Seattle
Mission
Operational Commercial Communications
Bus & Motor
STARLINK V2M, Unknown motor
Mass
730 kg wet, ~700 kg dry
Launch date (UTC)
2023-11-20 (3 years ago)
Launch vehicle
FALCON 9
Launch site
Air Force Western Test Range (AFWTR)
Object type
Payload
Rocket body
Debris
Shape & HBR
Box + 2 Pan, 17.7 m
Radar Cross Section
33.884 m², Large (>1 m²)

Expand to show TLE details & history
Last TLE update: 2 days ago

TLE from 2 days ago
0 STARLINK-30914
1 58377U 23178D   26171.47649786  .00002173  00000-0  75473-4 0  9992
2 58377  53.1606 241.8531 0002074 104.2264 255.8969 15.34393240145658
Epoch: 2026-06-20T11:26Z
TLE epoch observation values (Epoch: 2026-06-20T11:26:09.415Z)
Latitude
-0.00001°
Longitude
161.62329°
Altitude
463.971 km
Speed
7.636 km/s
True Right ascension
16h 07m 24s
True Declination
0° 00' 00"
Sunlit
Object was in full shadow at epoch
Visualization orbit readout
Latitude
Unknown
Longitude
Unknown
Altitude
Unknown
Speed
Unknown
Apparent Right ascension
Unknown
Apparent Declination
Unknown
Sunlit
N/A
Visualization observer readout
Local Sidereal Time
00:38:30
Azimuth
Unknown
Elevation
Unknown
Doppler factor
Unknown
Orbital elements
Apogee altitude
464.399 km
Perigee altitude
461.561 km
Semi-major axis
6,841.117 km
Eccentricity
0.00021
Inclination
53.1606°
RAAN
241.8531°
Arg. of periapsis
104.2264°
True anomaly
255.87385°
Mean anomaly
255.8969°
Eccentric anomaly
255.88538°
Mean motion
3.83577 °/min
Orbital period
93.85 mins
BSTAR
0.000075473
Loading maneuver chart data...
Computing Atmospheric mass density...
Loading historical data...
Loading historical data...
Loading historical data...
Loading historical data...
Loading historical data...
Loading historical data...
Loading historical data...

Documentation

Showing up to 5 results
|